sat.trackr.live / text

‹ back to catalog

STARLINK-5664

NORAD 55360 · 2023-013AF

PAYLOAD ACTIVE UNKNOWN

§ Identity

Operator
Country
US
Launch date
2023-01-26
Launch site
AFETR
Launch vehicle
Mass (kg)
RCS (m²)

Purposes: comms

External: N2YO · Heavens-Above · Gunter

§ Orbital elements

Epoch: 2026-05-24T23:44:56.929056Z

Period
94.27 min
Inclination
43.0013°
Eccentricity
0.0001108
Mean motion
15.27574998 rev/d
Perigee alt
482.3 km
Apogee alt
483.8 km
Semi-major
6,861.2 km
B*
2.3780e-5
RAAN
250.5020°
Arg perigee
280.2878°
Mean anomaly
79.7848°
Rev number
18,313

§ Raw data

STARLINK-56641 55360U 23013AF  26144.98954779  .00000392  00000+0  23780-4 0  99902 55360  43.0013 250.5020 0001108 280.2878  79.7848 15.27574998183137

JSON: /api/v1/satellites/55360 · /tle

For live sub-satellite position, see the globe view (requires WebGL).

§ Visibility from observer

Set your observer location to see the next 7 days of passes ≥ 10°. The values pass through the URL so the page stays shareable.

No JS? Fill the form by hand. The geolocation button needs JavaScript.